Location: Wien
(48.2082°N, 16.3738°E)
Time: 11:54:17
(UTC+02:00)

Tiros 1 despin weight - Pass Details

Date: 14 September 2024
Orbit: 573 x 615 km, 48.2° (Epoch: 06 October)

Event Time Altitude Azimuth Distance (km) Brightness Sun altitude
Rises 03:56:54 0° 209° (SSW) 2,861 - -24.4°
Reaches altitude 10° 03:59:34 10° 194° (SSW) 1,966 - -24.1°
Exits shadow 04:02:47 22° 149° (SSE) 1,336 ? -23.7°
Maximum altitude 04:03:05 23° 143° (SE) 1,330 ? -23.6°
Drops below altitude 10° 04:06:39 10° 91° (E) 1,983 ? -23.1°
Sets 04:09:20 0° 77° (ENE) 2,892 ? -22.8°
